Location: Chuathbaluk
(61.5726°N, 159.2454°W)
Time: 17:15:31
(UTC+00:00)

ITAMSAT 1 - Pass Details

Date: 18 January 2021
Orbit: 784 x 796 km, 98.9° (Epoch: 05 March)

Event Time Altitude Azimuth Distance (km) Brightness Sun altitude
Rises 17:57:29 0° 19° (NNE) 3,292 10.8 -9.9°
Reaches altitude 10° 17:59:48 10° 19° (NNE) 2,359 10.1 -9.7°
Maximum altitude 18:05:01 86° 293° (WNW) 797 7.7 -9.1°
Drops below altitude 10° 18:10:13 10° 204° (SSW) 2,346 10.2 -8.6°
Sets 18:12:31 0° 204° (SSW) 3,272 10.9 -8.3°
